Tracking 18647 objects as of 30-May-2017
HD Live streaming from Space Station
objects crossing your sky now

OPS 9328 (IDSCS 15)

Track OPS 9328 (IDSCS 15) now!
OPS 9328 (IDSCS 15) is classified as:


NORAD ID: 2655
Int'l Code: 1967-003H
Perigee: 33,674.5 km
Apogee: 34,224.2 km
Inclination: 2.0 °
Period: 1,342.9 minutes
Semi major axis: 40320 km
RCS: 0.3981 m2 (medium)
Launch date: January 18, 1967
Source: United States (US)
Launch site: AIR FORCE EASTERN TEST RANGE (AFETR)
Uplink (MHz):
Downlink (MHz):
Beacon (MHz):
Mode:
Call sign:
Status:

Your satellite tracking list
Your tracking list is empty





NASA's NSSDC Master Catalog

Two Line Element Set (TLE):
1  2655U 67003H   17149.43278036 -.00000106 +00000-0 +00000-0 0  9997
2  2655 002.0494 052.5742 0068171 328.5626 235.1209 01.07230063103759
Source of the keplerian elements: AFSPC